No particular awareness of the weather is required.    There are no Weather-warnings


Meteo18 Weather Cam more information Meteo18 Weather Cam


Thunder radar more information blitzortung!


Rain radar more information rain snow radar


Visit our other weather sites:

Template documentation
and downloads

And another site



Weather Underground History page Text

Daily Summary for June 16, 2017 Units:  English    Metric   Both
« Previous Day
Next Day »
Daily Weekly Monthly Yearly Custom
  High: Low: Average:
Temperature: TemperatureC °F 15.0 °F 19.7 °F
Dew Point: DewpointC °F 9.1 °F 11.6 °F
Humidity: Humidity % 41 % 61 %
Wind Speed: WindSpeedKMH mph 0.0 mph 4.9 mph
Wind Gust: WindSpeedGustKMH mph - -
Wind:- - WSW
Pressure: PressurehPa in 1021.2 in -
Precipitation: 0.0 in    
Historical Graphs
 
 
Tabular Data for June 16, 2017
Time Temperature Dew Point Pressure Wind Wind Speed Wind Gust Humidity Rainfall Rate (Hourly)
TemperatureC °F DewpointC °F PressurehPa in Calm     Humidity % HourlyPrecipMM in
00:02 20.8 °F 11.4 °F 1021.2 in NW 1.6 mph 11.3 mph 55 % 0.0 in
00:12 20.6 °F 11.2 °F 1021.6 in NNW 3.2 mph 11.3 mph 55 % 0.0 in
00:17 20.5 °F 11.1 °F 1021.6 in NW 3.2 mph 11.3 mph 55 % 0.0 in
00:22 20.4 °F 11.3 °F 1021.6 in NNW 1.6 mph 8.0 mph 56 % 0.0 in
00:27 20.3 °F 11.2 °F 1021.6 in NNW 1.6 mph 8.0 mph 56 % 0.0 in
00:32 20.2 °F 11.7 °F 1021.6 in NW 3.2 mph 8.0 mph 58 % 0.0 in
00:37 20.1 °F 11.6 °F 1021.2 in NNW 1.6 mph 8.0 mph 58 % 0.0 in
00:42 19.9 °F 11.6 °F 1021.6 in NNW 3.2 mph 8.0 mph 59 % 0.0 in
00:47 19.8 °F 11.8 °F 1021.6 in NNW 4.8 mph 6.4 mph 60 % 0.0 in
00:57 19.5 °F 12.0 °F 1021.6 in NNW 3.2 mph 6.4 mph 62 % 0.0 in
01:02 19.4 °F 11.9 °F 1021.6 in NNW 1.6 mph 6.4 mph 62 % 0.0 in
01:12 19.2 °F 12.0 °F 1021.6 in NW 1.6 mph 4.8 mph 63 % 0.0 in
01:17 19.1 °F 11.9 °F 1021.6 in NW 6.4 mph 6.4 mph 63 % 0.0 in
01:22 19.1 °F 11.9 °F 1021.9 in NNW 3.2 mph 6.4 mph 63 % 0.0 in
01:27 19.1 °F 11.9 °F 1021.9 in NNW 3.2 mph 6.4 mph 63 % 0.0 in
01:32 19.0 °F 11.6 °F 1021.9 in NNW 3.2 mph 6.4 mph 62 % 0.0 in
01:37 18.9 °F 11.7 °F 1021.9 in NNW 3.2 mph 8.0 mph 63 % 0.0 in
01:42 18.9 °F 11.7 °F 1021.9 in NNW 3.2 mph 8.0 mph 63 % 0.0 in
01:47 18.8 °F 11.6 °F 1021.9 in WNW 3.2 mph 8.0 mph 63 % 0.0 in
01:57 18.7 °F 11.8 °F 1022.2 in NW 3.2 mph 9.7 mph 64 % 0.0 in
02:02 18.6 °F 11.9 °F 1022.2 in NNW 8.0 mph 9.7 mph 65 % 0.0 in
02:12 18.4 °F 12.4 °F 1022.2 in WNW 3.2 mph 9.7 mph 68 % 0.0 in
02:17 18.3 °F 12.5 °F 1022.2 in WNW 1.6 mph 9.7 mph 69 % 0.0 in
02:22 18.3 °F 12.5 °F 1022.2 in WNW 3.2 mph 11.3 mph 69 % 0.0 in
02:27 18.2 °F 12.6 °F 1022.2 in West 1.6 mph 11.3 mph 70 % 0.0 in
02:32 18.2 °F 12.9 °F 1022.2 in NW 6.4 mph 14.5 mph 71 % 0.0 in
02:37 18.3 °F 13.2 °F 1022.2 in North 6.4 mph 14.5 mph 72 % 0.0 in
02:42 18.3 °F 13.2 °F 1022.2 in WNW 3.2 mph 16.1 mph 72 % 0.0 in
02:47 18.3 °F 13.4 °F 1022.2 in NW 6.4 mph 16.1 mph 73 % 0.0 in
02:57 18.2 °F 13.3 °F 1022.2 in NW 3.2 mph 12.9 mph 73 % 0.0 in
03:02 18.1 °F 13.4 °F 1022.2 in WNW 4.8 mph 11.3 mph 74 % 0.0 in
03:12 17.6 °F 13.1 °F 1022.6 in WNW 1.6 mph 8.0 mph 75 % 0.0 in
03:17 17.4 °F 13.1 °F 1022.6 in WNW 1.6 mph 8.0 mph 76 % 0.0 in
03:22 17.3 °F 13.0 °F 1022.6 in NW 3.2 mph 8.0 mph 76 % 0.0 in
03:32 17.1 °F 13.0 °F 1022.6 in NNW 3.2 mph 6.4 mph 77 % 0.0 in
03:37 16.9 °F 13.0 °F 1022.6 in Calm   6.4 mph 78 % 0.0 in
03:42 16.8 °F 12.9 °F 1022.9 in Calm   4.8 mph 78 % 0.0 in
03:47 16.7 °F 13.0 °F 1022.9 in Calm   4.8 mph 79 % 0.0 in
03:52 16.6 °F 13.1 °F 1022.9 in Calm   4.8 mph 80 % 0.0 in
03:57 16.6 °F 13.1 °F 1022.9 in WNW 1.6 mph 4.8 mph 80 % 0.0 in
04:02 16.7 °F 13.2 °F 1022.9 in Calm   4.8 mph 80 % 0.0 in
04:12 16.7 °F 13.2 °F 1022.9 in NW 1.6 mph 4.8 mph 80 % 0.0 in
04:17 16.7 °F 13.2 °F 1023.2 in NW 1.6 mph 3.2 mph 80 % 0.0 in
04:22 16.6 °F 13.3 °F 1023.2 in Calm   4.8 mph 81 % 0.0 in
04:32 16.6 °F 13.5 °F 1023.2 in North 3.2 mph 9.7 mph 82 % 0.0 in
04:37 16.6 °F 13.5 °F 1023.2 in NNE 3.2 mph 11.3 mph 82 % 0.0 in
04:42 16.5 °F 13.4 °F 1023.2 in North 3.2 mph 11.3 mph 82 % 0.0 in
04:47 16.3 °F 13.2 °F 1023.2 in NNW 3.2 mph 9.7 mph 82 % 0.0 in
04:52 16.2 °F 13.1 °F 1023.2 in NNW 6.4 mph 9.7 mph 82 % 0.0 in
04:57 16.3 °F 13.2 °F 1023.2 in NNW 3.2 mph 12.9 mph 82 % 0.0 in
05:02 16.3 °F 13.2 °F 1023.6 in North 4.8 mph 12.9 mph 82 % 0.0 in
05:12 16.2 °F 13.1 °F 1023.6 in NNE 3.2 mph 12.9 mph 82 % 0.0 in
05:17 16.1 °F 13.0 °F 1023.6 in North 6.4 mph 9.7 mph 82 % 0.0 in
05:22 16.1 °F 13.0 °F 1023.6 in North 1.6 mph 9.7 mph 82 % 0.0 in
05:32 15.8 °F 12.9 °F 1023.6 in NNE 8.0 mph 11.3 mph 83 % 0.0 in
05:37 15.8 °F 12.9 °F 1023.6 in NW 1.6 mph 11.3 mph 83 % 0.0 in
05:42 15.8 °F 12.9 °F 1023.6 in NNW 3.2 mph 11.3 mph 83 % 0.0 in
05:52 15.8 °F 12.9 °F 1023.6 in WNW 1.6 mph 11.3 mph 83 % 0.0 in
05:57 15.7 °F 12.8 °F 1023.6 in NNW 6.4 mph 9.7 mph 83 % 0.0 in
06:02 15.6 °F 12.9 °F 1023.6 in NW 1.6 mph 9.7 mph 84 % 0.0 in
06:12 15.3 °F 12.8 °F 1023.9 in NW 1.6 mph 9.7 mph 85 % 0.0 in
06:17 15.2 °F 12.7 °F 1023.9 in Calm   8.0 mph 85 % 0.0 in
06:22 15.2 °F 12.9 °F 1023.9 in NW 4.8 mph 8.0 mph 86 % 0.0 in
06:32 15.1 °F 13.0 °F 1024.3 in Calm   4.8 mph 87 % 0.0 in
06:42 15.2 °F 12.9 °F 1024.3 in NNE 3.2 mph 4.8 mph 86 % 0.0 in
06:47 15.2 °F 12.9 °F 1024.3 in NW 4.8 mph 6.4 mph 86 % 0.0 in
06:52 15.2 °F 12.9 °F 1024.6 in NE 1.6 mph 6.4 mph 86 % 0.0 in
07:02 15.1 °F 12.6 °F 1024.6 in North 4.8 mph 11.3 mph 85 % 0.0 in
07:12 15.0 °F 12.3 °F 1024.6 in NNW 8.0 mph 12.9 mph 84 % 0.0 in
07:17 15.0 °F 12.3 °F 1024.6 in NNE 3.2 mph 11.3 mph 84 % 0.0 in
07:22 15.0 °F 12.3 °F 1024.6 in NNW 4.8 mph 11.3 mph 84 % 0.0 in
07:27 15.1 °F 12.4 °F 1024.9 in NNW 6.4 mph 11.3 mph 84 % 0.0 in
07:32 15.2 °F 12.3 °F 1024.9 in NNW 6.4 mph 17.7 mph 83 % 0.0 in
07:42 15.4 °F 12.3 °F 1024.9 in NNE 1.6 mph 17.7 mph 82 % 0.0 in
07:52 15.6 °F 12.4 °F 1024.9 in NNE 3.2 mph 11.3 mph 81 % 0.0 in
07:57 15.4 °F 12.2 °F 1025.3 in NNW 4.8 mph 11.3 mph 81 % 0.0 in
08:02 15.4 °F 12.2 °F 1025.3 in NNW 3.2 mph 11.3 mph 81 % 0.0 in
08:12 15.3 °F 12.1 °F 1025.6 in NNE 9.7 mph 11.3 mph 81 % 0.0 in
08:17 15.3 °F 11.9 °F 1025.6 in WNW 3.2 mph 17.7 mph 80 % 0.0 in
08:22 15.3 °F 11.7 °F 1025.6 in NNW 8.0 mph 17.7 mph 79 % 0.0 in
08:32 15.4 °F 11.6 °F 1025.6 in NNW 6.4 mph 14.5 mph 78 % 0.0 in
08:42 15.7 °F 11.7 °F 1025.6 in NNW 3.2 mph 12.9 mph 77 % 0.0 in
08:52 15.9 °F 11.5 °F 1025.6 in NNE 1.6 mph 11.3 mph 75 % 0.0 in
09:02 16.1 °F 11.5 °F 1025.6 in NNE 6.4 mph 12.9 mph 74 % 0.0 in
09:12 16.2 °F 11.1 °F 1025.6 in NNE 6.4 mph 11.3 mph 72 % 0.0 in
09:17 16.3 °F 11.2 °F 1025.6 in NE 4.8 mph 9.7 mph 72 % 0.0 in
09:22 16.4 °F 11.1 °F 1025.6 in ENE 4.8 mph 9.7 mph 71 % 0.0 in
09:32 16.9 °F 11.2 °F 1025.6 in ENE 1.6 mph 9.7 mph 69 % 0.0 in
09:42 17.7 °F 11.5 °F 1026.0 in Calm   9.7 mph 67 % 0.0 in
09:47 18.2 °F 11.3 °F 1026.0 in Calm   6.4 mph 64 % 0.0 in
09:52 18.1 °F 10.9 °F 1026.0 in West 3.2 mph 4.8 mph 63 % 0.0 in
09:57 18.1 °F 10.9 °F 1026.0 in WSW 1.6 mph 6.4 mph 63 % 0.0 in
10:02 18.2 °F 11.3 °F 1026.0 in WSW 3.2 mph 8.0 mph 64 % 0.0 in
10:12 19.1 °F 11.6 °F 1026.0 in North 3.2 mph 8.0 mph 62 % 0.0 in
10:17 19.3 °F 10.3 °F 1026.0 in West 3.2 mph 6.4 mph 56 % 0.0 in
10:22 19.1 °F 10.1 °F 1026.0 in WNW 4.8 mph 8.0 mph 56 % 0.0 in
10:27 19.1 °F 10.6 °F 1026.0 in Calm   9.7 mph 58 % 0.0 in
10:32 19.4 °F 10.4 °F 1026.0 in WNW 1.6 mph 9.7 mph 56 % 0.0 in
10:42 19.3 °F 10.8 °F 1026.3 in WSW 1.6 mph 9.7 mph 58 % 0.0 in
10:52 19.3 °F 11.3 °F 1026.3 in WNW 6.4 mph 11.3 mph 60 % 0.0 in
11:02 19.3 °F 11.1 °F 1026.0 in WNW 6.4 mph 14.5 mph 59 % 0.0 in
11:07 19.4 °F 10.9 °F 1026.0 in NW 1.6 mph 11.3 mph 58 % 0.0 in
11:12 19.6 °F 11.4 °F 1026.0 in NNE 3.2 mph 11.3 mph 59 % 0.0 in
11:17 19.7 °F 11.2 °F 1026.0 in WNW 6.4 mph 11.3 mph 58 % 0.0 in
11:22 19.9 °F 11.6 °F 1026.0 in North 1.6 mph 9.7 mph 59 % 0.0 in
11:32 20.7 °F 12.1 °F 1026.0 in WNW 8.0 mph 9.7 mph 58 % 0.0 in
11:42 20.5 °F 12.2 °F 1026.0 in NW 6.4 mph 11.3 mph 59 % 0.0 in
11:47 20.6 °F 12.0 °F 1025.6 in SW 9.7 mph 12.9 mph 58 % 0.0 in
11:52 20.8 °F 12.2 °F 1025.6 in North 9.7 mph 12.9 mph 58 % 0.0 in
11:57 20.9 °F 12.3 °F 1025.6 in WNW 3.2 mph 12.9 mph 58 % 0.0 in
12:02 20.8 °F 12.2 °F 1025.6 in West 1.6 mph 12.9 mph 58 % 0.0 in
12:12 20.9 °F 12.3 °F 1025.6 in West 8.0 mph 14.5 mph 58 % 0.0 in
12:17 21.2 °F 12.9 °F 1025.6 in SW 11.3 mph 14.5 mph 59 % 0.0 in
12:22 21.0 °F 12.4 °F 1025.6 in Calm   14.5 mph 58 % 0.0 in
12:27 21.3 °F 12.7 °F 1025.3 in West 9.7 mph 16.1 mph 58 % 0.0 in
12:32 21.7 °F 13.1 °F 1025.3 in WNW 1.6 mph 16.1 mph 58 % 0.0 in
12:42 21.4 °F 12.8 °F 1025.6 in WNW 1.6 mph 17.7 mph 58 % 0.0 in
12:47 21.6 °F 13.0 °F 1025.6 in WNW 11.3 mph 17.7 mph 58 % 0.0 in
12:52 21.7 °F 13.3 °F 1025.6 in ENE 3.2 mph 17.7 mph 59 % 0.0 in
13:02 21.9 °F 13.5 °F 1026.0 in WNW 11.3 mph 20.9 mph 59 % 0.0 in
13:07 21.9 °F 13.3 °F 1026.0 in NW 11.3 mph 20.9 mph 58 % 0.0 in
13:12 21.9 °F 13.5 °F 1026.0 in NW 4.8 mph 20.9 mph 59 % 0.0 in
13:17 22.2 °F 13.3 °F 1026.0 in NNW 3.2 mph 17.7 mph 57 % 0.0 in
13:22 22.2 °F 13.3 °F 1026.0 in North 11.3 mph 19.3 mph 57 % 0.0 in
13:27 22.2 °F 13.3 °F 1026.0 in NNW 11.3 mph 22.5 mph 57 % 0.0 in
13:32 21.9 °F 13.3 °F 1026.0 in West 14.5 mph 22.5 mph 58 % 0.0 in
13:37 21.9 °F 13.5 °F 1026.0 in North 11.3 mph 22.5 mph 59 % 0.0 in
13:42 22.1 °F 12.9 °F 1026.0 in NNE 6.4 mph 17.7 mph 56 % 0.0 in
13:47 22.2 °F 13.0 °F 1026.0 in WNW 12.9 mph 17.7 mph 56 % 0.0 in
13:57 22.2 °F 11.6 °F 1026.0 in West 6.4 mph 20.9 mph 51 % 0.0 in
14:02 22.3 °F 12.0 °F 1026.0 in NW 4.8 mph 20.9 mph 52 % 0.0 in
14:07 22.3 °F 11.4 °F 1026.0 in WSW 1.6 mph 20.9 mph 50 % 0.0 in
14:12 22.5 °F 10.9 °F 1026.0 in NNW 4.8 mph 14.5 mph 48 % 0.0 in
14:17 22.2 °F 10.7 °F 1026.0 in WNW 3.2 mph 19.3 mph 48 % 0.0 in
14:22 22.4 °F 10.5 °F 1026.0 in NNW 8.0 mph 19.3 mph 47 % 0.0 in
14:27 22.6 °F 9.4 °F 1026.0 in WNW 6.4 mph 19.3 mph 43 % 0.0 in
14:32 22.3 °F 9.8 °F 1026.0 in NNW 6.4 mph 17.7 mph 45 % 0.0 in
14:37 22.3 °F 9.1 °F 1026.0 in NE 1.6 mph 17.7 mph 43 % 0.0 in
14:42 22.4 °F 9.2 °F 1026.0 in WNW 4.8 mph 16.1 mph 43 % 0.0 in
14:47 22.4 °F 9.9 °F 1026.0 in WNW 8.0 mph 19.3 mph 45 % 0.0 in
14:52 22.4 °F 10.2 °F 1026.0 in NW 3.2 mph 19.3 mph 46 % 0.0 in
14:57 22.4 °F 9.9 °F 1026.0 in West 1.6 mph 19.3 mph 45 % 0.0 in
15:02 22.8 °F 10.9 °F 1026.0 in West 6.4 mph 16.1 mph 47 % 0.0 in
15:07 22.9 °F 10.3 °F 1026.0 in WNW 4.8 mph 17.7 mph 45 % 0.0 in
15:12 22.7 °F 9.8 °F 1026.0 in WNW 11.3 mph 17.7 mph 44 % 0.0 in
15:17 22.7 °F 11.4 °F 1026.0 in NNE 8.0 mph 22.5 mph 49 % 0.0 in
15:22 22.9 °F 11.0 °F 1026.0 in WNW 9.7 mph 22.5 mph 47 % 0.0 in
15:27 22.8 °F 9.9 °F 1026.0 in NW 6.4 mph 22.5 mph 44 % 0.0 in
15:32 22.8 °F 9.9 °F 1026.0 in NNW 8.0 mph 19.3 mph 44 % 0.0 in
15:37 22.8 °F 10.2 °F 1026.0 in NW 11.3 mph 19.3 mph 45 % 0.0 in
15:42 22.9 °F 10.0 °F 1026.0 in Calm   14.5 mph 44 % 0.0 in
15:47 23.1 °F 10.5 °F 1026.0 in NW 1.6 mph 14.5 mph 45 % 0.0 in
15:52 23.0 °F 10.4 °F 1026.0 in WNW 17.7 mph 19.3 mph 45 % 0.0 in
15:57 22.8 °F 10.6 °F 1026.0 in NNW 1.6 mph 20.9 mph 46 % 0.0 in
16:02 22.8 °F 10.9 °F 1026.0 in West 1.6 mph 20.9 mph 47 % 0.0 in
16:07 22.8 °F 9.2 °F 1026.0 in NNW 3.2 mph 20.9 mph 42 % 0.0 in
16:12 22.9 °F 9.7 °F 1026.0 in NNW 8.0 mph 24.1 mph 43 % 0.0 in
16:17 23.3 °F 10.4 °F 1026.0 in NNW 8.0 mph 24.1 mph 44 % 0.0 in
16:22 23.4 °F 9.8 °F 1026.0 in West 12.9 mph 16.1 mph 42 % 0.0 in
16:27 23.2 °F 10.6 °F 1026.0 in WNW 6.4 mph 20.9 mph 45 % 0.0 in
16:32 23.3 °F 11.0 °F 1026.0 in WNW 9.7 mph 20.9 mph 46 % 0.0 in
16:37 23.6 °F 10.3 °F 1026.0 in WNW 8.0 mph 20.9 mph 43 % 0.0 in
16:42 23.5 °F 10.9 °F 1026.0 in North 3.2 mph 20.9 mph 45 % 0.0 in
16:47 23.5 °F 10.2 °F 1026.0 in NNE 1.6 mph 20.9 mph 43 % 0.0 in
16:52 23.6 °F 10.3 °F 1025.6 in WNW 16.1 mph 20.9 mph 43 % 0.0 in
16:57 23.5 °F 9.8 °F 1025.6 in WNW 11.3 mph 19.3 mph 42 % 0.0 in
17:02 23.6 °F 11.0 °F 1025.6 in NNW 9.7 mph 19.3 mph 45 % 0.0 in
17:07 23.6 °F 10.6 °F 1026.0 in NE 3.2 mph 19.3 mph 44 % 0.0 in
17:12 23.7 °F 10.4 °F 1025.6 in WNW 6.4 mph 14.5 mph 43 % 0.0 in
17:17 23.4 °F 10.5 °F 1026.0 in NNW 6.4 mph 17.7 mph 44 % 0.0 in
17:22 23.5 °F 10.9 °F 1025.6 in NNW 4.8 mph 17.7 mph 45 % 0.0 in
17:27 23.4 °F 10.1 °F 1026.0 in NNW 14.5 mph 22.5 mph 43 % 0.0 in
17:32 23.5 °F 9.5 °F 1026.0 in NW 3.2 mph 22.5 mph 41 % 0.0 in
17:37 23.7 °F 10.4 °F 1026.0 in WNW 1.6 mph 22.5 mph 43 % 0.0 in
17:42 23.7 °F 10.7 °F 1025.6 in NW 8.0 mph 17.7 mph 44 % 0.0 in
17:47 23.6 °F 9.9 °F 1025.6 in NNW 17.7 mph 19.3 mph 42 % 0.0 in
17:52 23.5 °F 10.5 °F 1025.6 in North 11.3 mph 19.3 mph 44 % 0.0 in
17:57 23.5 °F 10.2 °F 1025.6 in WNW 3.2 mph 20.9 mph 43 % 0.0 in
18:02 23.4 °F 10.1 °F 1025.6 in NW 6.4 mph 20.9 mph 43 % 0.0 in
18:07 23.4 °F 10.5 °F 1025.6 in NNW 9.7 mph 20.9 mph 44 % 0.0 in
18:12 23.4 °F 10.5 °F 1025.6 in NNE 11.3 mph 17.7 mph 44 % 0.0 in
18:17 23.3 °F 10.7 °F 1025.6 in NW 8.0 mph 17.7 mph 45 % 0.0 in
18:22 23.6 °F 11.3 °F 1026.0 in NW 6.4 mph 17.7 mph 46 % 0.0 in
18:32 23.4 °F 10.5 °F 1026.0 in NW 8.0 mph 17.7 mph 44 % 0.0 in
18:42 23.2 °F 10.6 °F 1025.6 in NNE 9.7 mph 19.3 mph 45 % 0.0 in
18:47 23.5 °F 10.5 °F 1025.6 in NNW 4.8 mph 19.3 mph 44 % 0.0 in
18:52 23.6 °F 10.3 °F 1026.0 in NNW 4.8 mph 17.7 mph 43 % 0.0 in
18:57 23.5 °F 10.9 °F 1025.6 in North 12.9 mph 16.1 mph 45 % 0.0 in
19:02 23.2 °F 10.6 °F 1025.6 in NNW 9.7 mph 27.4 mph 45 % 0.0 in
19:07 23.0 °F 10.8 °F 1026.0 in NNW 12.9 mph 27.4 mph 46 % 0.0 in
19:12 22.9 °F 10.7 °F 1026.0 in NNE 3.2 mph 27.4 mph 46 % 0.0 in
19:17 22.9 °F 11.0 °F 1025.6 in NNE 14.5 mph 19.3 mph 47 % 0.0 in
19:22 22.8 °F 10.9 °F 1025.6 in NE 6.4 mph 19.3 mph 47 % 0.0 in
19:27 22.7 °F 10.8 °F 1025.6 in NNE 12.9 mph 20.9 mph 47 % 0.0 in
19:32 22.8 °F 10.6 °F 1026.0 in NNE 9.7 mph 20.9 mph 46 % 0.0 in
19:37 22.8 °F 10.9 °F 1026.0 in North 11.3 mph 19.3 mph 47 % 0.0 in
19:42 22.8 °F 10.9 °F 1026.0 in NNE 6.4 mph 17.7 mph 47 % 0.0 in
19:47 22.8 °F 10.9 °F 1026.0 in NNW 14.5 mph 16.1 mph 47 % 0.0 in
19:52 22.6 °F 11.0 °F 1026.0 in NNE 9.7 mph 19.3 mph 48 % 0.0 in
19:57 22.6 °F 11.3 °F 1026.0 in North 17.7 mph 20.9 mph 49 % 0.0 in
20:02 22.4 °F 10.8 °F 1026.0 in NNE 12.9 mph 20.9 mph 48 % 0.0 in
20:12 22.3 °F 11.4 °F 1026.0 in NNE 6.4 mph 20.9 mph 50 % 0.0 in
20:17 22.2 °F 11.0 °F 1026.0 in NNW 6.4 mph 12.9 mph 49 % 0.0 in
20:22 22.0 °F 11.1 °F 1026.0 in NE 11.3 mph 16.1 mph 50 % 0.0 in
20:27 21.9 °F 11.3 °F 1026.3 in NE 6.4 mph 16.1 mph 51 % 0.0 in
20:32 21.8 °F 11.2 °F 1026.3 in NNW 6.4 mph 16.1 mph 51 % 0.0 in
20:37 21.8 °F 11.5 °F 1026.3 in North 8.0 mph 24.1 mph 52 % 0.0 in
20:47 21.6 °F 11.3 °F 1026.3 in NE 3.2 mph 24.1 mph 52 % 0.0 in
20:52 21.5 °F 11.2 °F 1026.3 in North 4.8 mph 16.1 mph 52 % 0.0 in
20:57 21.4 °F 11.4 °F 1026.3 in NE 6.4 mph 16.1 mph 53 % 0.0 in
21:02 21.2 °F 11.2 °F 1026.3 in NNE 6.4 mph 14.5 mph 53 % 0.0 in
21:07 21.0 °F 11.1 °F 1026.3 in North 4.8 mph 14.5 mph 53 % 0.0 in
21:12 20.9 °F 11.2 °F 1026.3 in North 4.8 mph 14.5 mph 54 % 0.0 in
21:17 20.8 °F 11.2 °F 1026.3 in NNE 4.8 mph 12.9 mph 54 % 0.0 in
21:22 20.6 °F 11.2 °F 1026.3 in North 3.2 mph 12.9 mph 55 % 0.0 in
21:32 20.2 °F 11.4 °F 1026.6 in North 3.2 mph 9.7 mph 57 % 0.0 in
21:37 19.9 °F 11.4 °F 1026.6 in NE 1.6 mph 9.7 mph 58 % 0.0 in
21:42 19.7 °F 11.5 °F 1026.6 in North 3.2 mph 6.4 mph 59 % 0.0 in
21:47 19.4 °F 11.4 °F 1026.6 in North 1.6 mph 6.4 mph 60 % 0.0 in
21:52 19.3 °F 11.3 °F 1026.6 in Calm   6.4 mph 60 % 0.0 in
21:57 19.2 °F 11.5 °F 1026.6 in NNW 1.6 mph 6.4 mph 61 % 0.0 in
22:02 19.1 °F 11.4 °F 1026.6 in Calm   4.8 mph 61 % 0.0 in
22:07 18.9 °F 11.5 °F 1026.6 in Calm   3.2 mph 62 % 0.0 in
22:12 18.8 °F 11.4 °F 1026.6 in NNW 1.6 mph 3.2 mph 62 % 0.0 in
22:17 18.6 °F 11.4 °F 1027.0 in North 3.2 mph 3.2 mph 63 % 0.0 in
22:22 18.4 °F 11.5 °F 1027.0 in Calm   3.2 mph 64 % 0.0 in
22:32 18.1 °F 11.4 °F 1027.0 in Calm   3.2 mph 65 % 0.0 in
22:37 18.0 °F 11.6 °F 1027.0 in NNW 1.6 mph 3.2 mph 66 % 0.0 in
22:42 17.8 °F 11.4 °F 1027.0 in Calm   3.2 mph 66 % 0.0 in
22:52 17.4 °F 11.4 °F 1027.0 in North 1.6 mph 1.6 mph 68 % 0.0 in
22:57 17.2 °F 11.5 °F 1027.0 in Calm   1.6 mph 69 % 0.0 in
23:02 17.1 °F 11.4 °F 1027.3 in Calm   1.6 mph 69 % 0.0 in
23:07 17.0 °F 11.3 °F 1027.3 in Calm   1.6 mph 69 % 0.0 in
23:12 16.9 °F 11.4 °F 1027.3 in Calm   1.6 mph 70 % 0.0 in
23:17 16.8 °F 11.3 °F 1027.3 in Calm   1.6 mph 70 % 0.0 in
23:22 16.7 °F 11.4 °F 1027.3 in Calm   1.6 mph 71 % 0.0 in
23:32 16.5 °F 11.4 °F 1027.3 in NW 1.6 mph 3.2 mph 72 % 0.0 in
23:37 16.4 °F 11.3 °F 1027.3 in Calm   3.2 mph 72 % 0.0 in
23:42 16.3 °F 11.5 °F 1027.3 in Calm   3.2 mph 73 % 0.0 in
23:47 16.2 °F 11.4 °F 1027.3 in WNW 1.6 mph 3.2 mph 73 % 0.0 in
23:52 16.2 °F 11.4 °F 1027.3 in Calm   3.2 mph 73 % 0.0 in
23:57 16.2 °F 11.4 °F 1027.3 in Calm   3.2 mph 73 % 0.0 in
Meteo18
Compliments of Weather Underground - 4 mb

Script developed by  Jim McMurry - jmcmurry@mwt.net Adapted for the template by  Wim van der Kuil - Leuven-Template.eu

You find our weather info also at:

European Weather Network

Weather Underground

Equipment we use:

Weather-station
Davis Vue

Weather-program
Meteobridge

Weather-server
Raspberry PI 2 B+

Provider
1 and 1

Davis Vue

Meteobridge

Raspberry PI 2 B+

1 and 1